DW0677 Weather Reports


time (UTC)temp
C
wind
direction
speed
KPH
gust
KPH
rain 1hr
cm
rain 24hr
cm
rain mn
cm
humidity
%
barometer
mb
20210920052845 13 183 0.0 0.0 0.00 3.53 3.30 92 1024.6
20210920052343 13 183 0.0 0.0 0.00 3.53 3.30 92 1024.6
20210920051842 13 183 0.0 0.0 0.00 3.53 3.30 92 1024.5
20210920051343 13 183 0.0 0.0 0.00 3.53 3.30 91 1024.5
20210920050829 13 183 0.0 0.0 0.00 3.53 3.30 91 1024.4
20210920050329 13 183 0.0 0.0 0.00 3.53 3.30 91 1024.3
20210920045906 13 183 0.0 0.0 0.00 3.73 3.30 91 1024.3
20210920045334 13 183 0.0 0.0 0.00 3.73 3.30 91 1024.3
20210920044852 13 183 0.0 0.0 0.00 3.73 3.30 91 1024.1
20210920044345 13 183 0.0 0.0 0.00 3.73 3.30 90 1024.1
20210920043844 13 183 0.0 0.0 0.00 3.73 3.30 90 1024.0
20210920043344 14 183 0.0 0.0 0.00 3.73 3.30 90 1023.9
20210920042841 14 183 0.0 0.0 0.00 3.73 3.30 89 1023.8
20210920042340 14 183 0.0 0.0 0.00 3.73 3.30 89 1023.8
20210920041837 14 183 0.0 0.0 0.00 3.73 3.30 89 1023.8
20210920041437 14 183 0.0 0.0 0.00 3.73 3.30 89 1023.7
20210920040843 14 183 0.0 0.0 0.00 3.73 3.30 88 1023.5
20210920040341 15 183 0.0 0.0 0.00 3.73 3.30 88 1023.5
20210920035838 15 183 0.0 0.0 0.00 3.73 3.30 88 1023.4
20210920035341 15 183 0.0 0.0 0.00 3.73 3.30 87 1023.3
20210920034840 15 183 0.0 0.0 0.00 3.73 3.30 87 1023.3
20210920034338 15 183 0.0 0.0 0.00 3.73 3.30 87 1023.1
20210920033838 15 183 0.0 0.0 0.00 3.73 3.30 87 1023.1
20210920033341 15 183 0.0 0.0 0.00 3.73 3.30 86 1023.1
20210920032828 15 183 0.0 0.0 0.00 3.73 3.30 86 1022.9
20210920032348 15 183 0.0 0.0 0.00 3.73 3.30 86 1023.0
20210920031839 15 173 0.0 0.0 0.00 3.73 3.30 85 1022.9
20210920031341 15 173 0.0 0.0 0.00 3.73 3.30 84 1022.7
20210920030857 15 173 0.0 0.0 0.00 3.73 3.30 84 1022.6
20210920030450 15 173 526.3 526.3 0.00 0.00 3.30 84 1022.5
20210920025904 15 173 0.0 0.0 0.00 3.84 3.30 83 1022.5
20210920025334 15 173 0.0 0.0 0.00 3.84 3.30 82 1022.3
20210920024853 15 173 0.0 0.0 0.00 3.84 3.30 81 1022.2
20210920024351 15 173 0.0 0.0 0.00 3.84 3.30 79 1022.1
20210920023840 16 173 0.0 0.0 0.00 3.84 3.30 79 1022.0
20210920023329 16 173 0.0 0.0 0.00 3.84 3.30 79 1022.0
20210920022829 16 172 0.0 1.6 0.00 3.84 3.30 78 1021.9
20210920022429 16 173 0.0 3.2 0.00 3.84 3.30 78 1021.8
20210920021937 16 195 526.3 526.3 0.00 0.00 3.30 77 1021.7
20210920021330 16 195 0.0 0.0 0.00 3.84 3.30 77 1021.7
20210920020830 16 195 0.0 0.0 0.00 3.84 3.30 77 1021.7
20210920020405 16 195 0.0 0.0 0.00 3.84 3.30 77 1021.7
20210920015902 16 195 0.0 1.6 0.00 3.84 3.30 77 1021.6
20210920015354 16 190 0.0 1.6 0.00 3.84 3.30 78 1021.6
20210920014831 16 184 0.0 1.6 0.00 3.84 3.30 80 1021.4
20210920014330 16 184 0.0 1.6 0.00 3.84 3.30 80 1021.4
20210920013908 16 273 0.0 1.6 0.00 3.84 3.30 79 1021.4
20210920013334 16 273 0.0 1.6 0.00 3.84 3.30 77 1021.4
20210920012827 16 262 0.0 4.8 0.00 3.84 3.30 77 1021.2
20210920012326 16 263 0.0 4.8 0.00 3.84 3.30 75 1021.3
20210920011908 16 234 0.0 4.8 0.00 3.84 3.30 75 1021.2
20210920011404 16 233 1.6 3.2 0.00 3.84 3.30 74 1021.1
20210920010842 17 227 0.0 4.8 0.00 3.84 3.30 75 1021.1
20210920010346 17 228 0.0 4.8 0.00 3.84 3.30 74 1021.1
20210920005844 17 222 0.0 3.2 0.00 3.84 3.30 73 1021.0
20210920005340 17 225 0.0 4.8 0.00 3.84 3.30 72 1021.0
20210920004838 17 242 1.6 4.8 0.00 3.84 3.30 71 1021.0
20210920004337 17 262 1.6 6.4 0.00 3.84 3.30 71 1021.0
20210920003835 17 249 3.2 6.4 0.00 3.84 3.30 71 1020.9
20210920003334 17 259 1.6 6.4 0.00 3.84 3.30 70 1020.8
20210920002836 17 242 1.6 6.4 0.00 3.84 3.30 72 1020.7
20210920002336 17 249 1.6 8.0 0.00 3.84 3.30 73 1020.6
20210920001831 18 257 3.2 8.0 0.00 3.84 3.30 72 1020.5
20210920001330 18 197 1.6 8.0 0.00 3.84 3.30 76 1020.5
20210920000929 18 148 526.3 526.3 0.00 0.00 3.30 76 1020.3
20210920000330 18 155 3.2 12.9 0.00 3.84 3.30 79 1020.3
20210919235829 17 186 4.8 12.9 0.00 3.86 3.30 78 1020.3
20210919235328 17 174 4.8 12.9 0.00 3.86 3.30 79 1020.2
20210919234928 17 145 6.4 12.9 0.00 3.86 3.30 80 1020.2
20210919234344 17 202 4.8 14.5 0.00 3.86 3.30 80 1020.2
20210919233826 17 157 6.4 16.1 0.00 3.86 3.30 80 1020.3
20210919233324 17 122 4.8 9.7 0.00 3.86 3.30 78 1020.2
20210919232923 17 176 4.8 11.3 0.00 3.86 3.30 79 1020.3
20210919232341 17 83 1.6 11.3 0.00 3.86 3.30 82 1020.3
20210919231840 17 150 6.4 12.9 0.00 3.86 3.30 80 1020.2
20210919231338 17 190 4.8 9.7 0.00 3.86 3.30 80 1020.2
20210919230836 17 180 3.2 9.7 0.00 3.86 3.30 80 1020.2
20210919230337 17 155 1.6 12.9 0.00 3.86 3.30 82 1020.3
20210919225834 17 163 3.2 14.5 0.00 3.86 3.30 81 1020.3
20210919225355 17 162 4.8 14.5 0.00 3.86 3.30 82 1020.2
20210919224843 17 151 1.6 11.3 0.00 3.86 3.30 85 1020.1
20210919224326 17 95 3.2 9.7 0.00 3.86 3.30 84 1020.1
20210919223845 16 165 3.2 11.3 0.00 3.86 3.30 84 1020.2
20210919223338 16 165 1.6 14.5 0.00 3.86 3.30 86 1020.3
20210919222837 16 133 1.6 14.5 0.03 3.86 3.30 85 1020.3
20210919222356 16 153 3.2 14.5 0.08 3.86 3.30 88 1020.2
20210919221828 16 174 4.8 9.7 0.13 3.86 3.30 87 1020.2
20210919221331 16 171 3.2 9.7 0.13 3.86 3.30 87 1020.2
20210919220833 16 173 4.8 9.7 0.13 3.86 3.30 85 1020.1
20210919220333 16 173 1.6 9.7 0.13 3.86 3.30 88 1020.0
20210919215831 16 191 4.8 8.0 0.13 3.86 3.30 89 1020.1
20210919215329 16 155 0.0 6.4 0.13 3.86 3.30 90 1020.0
20210919214828 15 166 1.6 6.4 0.13 3.86 3.30 93 1020.1
20210919214329 15 168 0.0 8.0 0.13 3.86 3.30 90 1020.1
20210919213828 15 168 1.6 8.0 0.13 3.86 3.30 89 1020.1
20210919213328 15 155 3.2 6.4 0.10 3.84 3.30 87 1020.2
20210919212828 16 228 1.6 11.3 0.10 3.84 3.28 83 1020.2
20210919212328 17 160 4.8 11.3 0.03 3.76 3.20 82 1020.1
20210919211831 17 188 1.6 4.8 0.00 3.73 3.17 79 1019.9
20210919211328 17 165 0.0 3.2 0.00 3.73 3.17 77 1019.7
20210919210831 17 163 0.0 1.6 0.00 3.73 3.17 74 1019.6
20210919210329 18 163 0.0 3.2 0.00 3.73 3.17 72 1019.5
20210919205828 18 163 0.0 3.2 0.00 3.73 3.17 72 1019.4
20210919205328 18 159 0.0 8.0 0.00 3.73 3.17 72 1019.5
20210919204826 18 128 0.0 12.9 0.00 3.73 3.17 68 1019.5
20210919204328 18 165 4.8 12.9 0.00 3.73 3.17 67 1019.5
20210919203829 18 78 1.6 6.4 0.00 3.73 3.17 68 1019.6
20210919203328 18 138 3.2 11.3 0.00 3.73 3.17 71 1019.5
20210919202826 18 172 1.6 8.0 0.00 3.73 3.17 75 1019.5
20210919202329 18 153 3.2 8.0 0.00 3.73 3.17 75 1019.5
20210919201831 18 150 1.6 4.8 0.00 3.73 3.17 74 1019.6
20210919201330 18 209 0.0 4.8 0.00 3.73 3.17 72 1019.5
20210919200829 18 151 1.6 9.7 0.00 3.73 3.17 75 1019.4
20210919200329 18 170 4.8 9.7 0.00 3.73 3.17 76 1019.5
20210919195829 18 130 4.8 8.0 0.00 3.73 3.17 75 1019.4
20210919195331 17 185 1.6 6.4 0.00 3.73 3.17 78 1019.4
20210919194829 17 129 0.0 4.8 0.00 3.73 3.17 79 1019.4
20210919194327 17 132 1.6 6.4 0.00 3.73 3.17 81 1019.4
20210919193829 17 163 3.2 6.4 0.00 3.73 3.17 84 1019.5
20210919193333 16 176 1.6 4.8 0.00 3.73 3.17 83 1019.4
20210919192831 16 144 0.0 3.2 0.00 3.73 3.17 84 1019.4
20210919192330 16 140 0.0 3.2 0.00 3.73 3.17 87 1019.4
20210919191835 15 153 0.0 4.8 0.00 3.73 3.17 86 1019.3
20210919191347 15 162 0.0 9.7 0.00 3.73 3.17 87 1019.2
20210919190839 15 163 0.0 9.7 0.00 3.73 3.17 87 1019.1
20210919190348 15 147 1.6 4.8 0.00 3.73 3.17 85 1019.1
20210919185838 15 116 1.6 3.2 0.00 3.78 3.17 86 1019.0
20210919185337 15 169 0.0 1.6 0.00 3.78 3.17 90 1019.0
20210919184833 15 169 0.0 4.8 0.00 3.78 3.17 88 1018.9
20210919184331 15 169 1.6 4.8 0.00 3.78 3.17 88 1018.8
20210919183830 15 144 0.0 8.0 0.00 3.78 3.17 89 1018.7
20210919183328 15 147 1.6 8.0 0.00 3.78 3.17 90 1018.7
20210919182830 15 158 1.6 6.4 0.00 3.78 3.17 93 1018.6
20210919182329 14 158 0.0 6.4 0.00 3.78 3.17 91 1018.6
20210919181827 13 136 0.0 1.6 0.00 3.78 3.17 94 1018.6
20210919181326 13 124 0.0 4.8 0.00 3.78 3.17 94 1018.5
20210919180845 13 179 0.0 4.8 0.00 3.78 3.17 94 1018.5
20210919180341 13 122 0.0 4.8 0.00 3.78 3.17 94 1018.5
20210919175842 13 84 0.0 1.6 0.00 3.99 3.17 94 1018.4
20210919175342 13 159 0.0 3.2 0.00 3.99 3.17 95 1018.4
20210919174851 13 143 0.0 1.6 0.00 3.99 3.17 96 1018.3
20210919174348 13 135 0.0 3.2 0.00 3.99 3.17 96 1018.3
20210919173829 13 135 0.0 3.2 0.00 3.99 3.17 96 1018.3
20210919173328 13 104 0.0 1.6 0.00 3.99 3.17 96 1018.2
20210919172825 13 86 0.0 1.6 0.00 3.99 3.17 97 1018.1
20210919172324 13 65 0.0 0.0 0.00 3.99 3.17 96 1018.0
20210919171827 13 65 0.0 0.0 0.00 3.99 3.17 97 1018.0
20210919171325 13 62 0.0 0.0 0.00 3.99 3.17 97 1017.9
20210919170828 12 62 0.0 0.0 0.00 3.99 3.17 97 1017.7
20210919170327 12 62 0.0 0.0 0.00 3.99 3.17 96 1017.7
20210919165829 12 62 0.0 0.0 0.00 4.06 3.17 97 1017.5
20210919165326 12 62 0.0 0.0 0.00 4.06 3.17 97 1017.4
20210919164829 12 62 0.0 0.0 0.00 4.06 3.17 97 1017.3
20210919164334 12 62 0.0 0.0 0.00 4.06 3.17 97 1017.1
20210919163835 12 62 0.0 0.0 0.00 4.06 3.17 97 1017.1
20210919163333 12 62 0.0 1.6 0.00 4.06 3.17 97 1016.9
20210919162854 12 62 0.0 1.6 0.00 4.06 3.17 97 1016.8
20210919162324 12 88 0.0 0.0 0.00 4.06 3.17 97 1016.8
20210919161825 12 88 0.0 0.0 0.00 4.06 3.17 97 1016.6
20210919161327 12 88 0.0 0.0 0.00 4.06 3.17 97 1016.5
20210919160829 12 88 0.0 0.0 0.00 4.06 3.17 97 1016.5
20210919160331 12 88 0.0 0.0 0.00 4.06 3.17 97 1016.3
20210919155831 12 88 0.0 0.0 0.03 4.42 3.17 97 1016.3
20210919155329 12 88 0.0 0.0 0.03 4.42 3.17 97 1016.1
20210919154828 11 88 0.0 0.0 0.03 4.42 3.17 97 1016.0
20210919154334 11 88 0.0 0.0 0.03 4.42 3.17 97 1016.0
20210919153835 11 88 0.0 0.0 0.03 4.42 3.17 97 1015.9
20210919153338 11 88 0.0 0.0 0.03 4.42 3.17 96 1015.9
20210919152834 11 88 0.0 0.0 0.03 4.42 3.17 97 1015.8
20210919152353 11 88 0.0 0.0 0.03 4.42 3.17 97 1015.7
20210919151847 11 88 0.0 0.0 0.05 4.42 3.17 97 1015.7
20210919151343 11 88 0.0 0.0 0.05 4.42 3.17 96 1015.6
20210919150928 11 88 0.0 0.0 0.08 4.42 3.17 96 1015.5
20210919150342 11 88 0.0 0.0 0.08 4.42 3.17 96 1015.4
20210919145841 11 88 0.0 4.8 0.08 4.65 3.15 96 1015.3
20210919145329 11 88 0.0 6.4 0.08 4.65 3.15 96 1015.1
20210919144905 11 81 3.2 6.4 0.08 4.65 3.15 96 1015.0
20210919144337 11 53 0.0 4.8 0.08 4.65 3.15 96 1015.0
20210919143836 11 74 0.0 4.8 0.08 4.65 3.15 96 1014.9
20210919143338 11 84 0.0 4.8 0.08 4.65 3.15 96 1014.8
20210919142839 11 82 0.0 4.8 0.08 4.65 3.15 96 1014.7
20210919142337 11 84 1.6 4.8 0.08 4.65 3.15 96 1014.6
20210919141839 11 162 0.0 0.0 0.05 4.62 3.12 96 1014.6
20210919141337 11 162 0.0 0.0 0.05 4.62 3.12 96 1014.5
20210919140837 11 162 0.0 0.0 0.03 4.60 3.10 96 1014.4
20210919140337 11 162 0.0 1.6 0.03 4.60 3.10 96 1014.4
20210919135838 11 162 0.0 3.2 0.03 5.13 3.07 96 1014.3
20210919135354 11 162 0.0 4.8 0.03 5.13 3.07 96 1014.3
20210919134842 11 141 0.0 3.2 0.05 5.13 3.07 96 1014.1
20210919134343 11 138 1.6 3.2 0.08 5.13 3.07 96 1014.1
20210919133831 11 72 0.0 3.2 0.10 5.13 3.07 96 1014.0
20210919133349 11 65 0.0 3.2 0.13 5.13 3.07 96 1013.9
20210919132851 11 65 0.0 0.0 0.18 5.13 3.07 96 1013.9
20210919132340 11 65 0.0 0.0 0.23 5.13 3.07 96 1013.8
20210919131841 11 65 0.0 0.0 0.28 5.13 3.07 96 1013.6
20210919131340 11 65 0.0 1.6 0.30 5.13 3.07 96 1013.6
20210919130839 11 65 0.0 3.2 0.36 5.13 3.07 96 1013.5
20210919130338 11 57 0.0 3.2 0.41 5.13 3.07 96 1013.3
20210919125837 11 58 0.0 1.6 0.41 5.56 3.05 96 1013.2
20210919125336 11 85 0.0 1.6 0.43 5.56 3.05 96 1013.2
20210919124835 11 85 0.0 3.2 0.43 5.54 3.02 96 1013.2
20210919124332 11 85 0.0 3.2 0.41 5.51 3.00 96 1013.1
20210919123838 11 85 0.0 1.6 0.38 5.49 2.97 96 1013.0
20210919123328 11 85 0.0 3.2 0.36 5.44 2.92 96 1013.0
20210919122826 11 85 0.0 1.6 0.30 5.38 2.87 96 1013.0
20210919122324 11 85 0.0 1.6 0.28 5.36 2.84 96 1012.9
20210919121825 11 85 0.0 1.6 0.25 5.31 2.79 96 1012.9
20210919121327 11 85 0.0 1.6 0.20 5.26 2.74 96 1012.9
20210919120907 11 85 0.0 1.6 0.15 5.21 2.69 96 1012.8
20210919120323 11 85 0.0 0.0 0.13 5.18 2.67 96 1012.7
20210919115823 11 85 0.0 0.0 0.10 5.51 2.64 96 1012.6
20210919115406 11 85 0.0 0.0 0.08 5.49 2.62 96 1012.6
20210919114842 11 85 0.0 0.0 0.05 5.46 2.59 96 1012.6
20210919114341 11 85 0.0 0.0 0.05 5.46 2.59 96 1012.5
20210919113840 11 85 0.0 0.0 0.05 5.44 2.57 96 1012.5
20210919113342 11 85 0.0 1.6 0.05 5.44 2.57 96 1012.4
20210919112839 11 85 0.0 1.6 0.10 5.44 2.57 96 1012.4
20210919112358 11 85 0.0 3.2 0.13 5.44 2.57 96 1012.3
20210919111825 11 86 1.6 3.2 0.13 5.41 2.54 96 1012.3
20210919111351 11 87 0.0 3.2 0.15 5.41 2.54 96 1012.3
20210919110836 11 87 0.0 1.6 0.18 5.41 2.54 96 1012.2
20210919110355 11 87 0.0 0.0 0.20 5.41 2.54 96 1012.3
20210919105823 11 87 0.0 1.6 0.20 5.84 2.54 96 1012.2
20210919105344 11 87 0.0 3.2 0.23 5.84 2.54 96 1012.2
20210919104834 11 87 0.0 1.6 0.23 5.84 2.54 96 1012.3
20210919104337 11 87 0.0 0.0 0.25 5.84 2.54 96 1012.3
20210919103838 11 87 0.0 0.0 0.28 5.82 2.51 96 1012.2
20210919103340 11 87 0.0 0.0 0.28 5.79 2.49 96 1012.2
20210919102841 11 87 0.0 1.6 0.28 5.77 2.46 96 1012.1
20210919102340 11 87 0.0 3.2 0.30 5.74 2.44 96 1012.0
20210919101839 11 151 0.0 3.2 0.30 5.71 2.41 96 1011.9
20210919101337 10 153 0.0 3.2 0.36 5.69 2.39 96 1012.0
20210919100823 10 157 0.0 3.2 0.46 5.66 2.36 96 1011.9
20210919100345 10 157 0.0 3.2 0.56 5.64 2.34 96 1011.9
20210919095837 10 157 0.0 1.6 0.69 5.99 2.34 96 1011.9
20210919095335 10 157 0.0 1.6 0.79 5.97 2.31 96 1011.9
20210919094852 10 120 0.0 6.4 0.86 5.94 2.29 96 1011.9
20210919094329 10 76 3.2 6.4 0.94 5.92 2.26 95 1011.7
20210919093830 10 80 0.0 3.2 1.02 5.89 2.24 95 1011.8
20210919093328 10 80 0.0 1.6 1.04 5.87 2.21 95 1011.8
20210919092829 10 115 0.0 1.6 1.09 5.84 2.18 95 1011.8
20210919092331 10 115 0.0 3.2 1.09 5.79 2.13 95 1011.8
20210919091830 10 112 1.6 3.2 1.09 5.74 2.08 95 1011.9
20210919091329 10 69 0.0 3.2 1.09 5.66 2.01 95 1011.7
20210919090828 10 75 0.0 3.2 1.19 5.56 1.91 95 1011.7
20210919090330 10 153 0.0 4.8 1.24 5.38 1.73 95 1011.8
20210919085827 10 88 1.6 4.8 1.17 5.69 1.65 95 1011.6
20210919085330 10 144 0.0 4.8 1.04 5.54 1.50 95 1011.8
20210919084849 11 90 1.6 4.8 1.02 5.46 1.42 95 1011.6
20210919084341 11 85 0.0 4.8 0.99 5.36 1.32 95 1011.4
20210919083823 11 77 0.0 4.8 0.91 5.26 1.22 94 1011.6
20210919083345 11 84 1.6 4.8 0.86 5.21 1.17 94 1011.4
20210919082839 11 86 0.0 1.6 0.84 5.13 1.09 94 1011.4
20210919082322 11 66 0.0 1.6 0.91 5.08 1.04 94 1011.3
20210919081827 11 66 0.0 1.6 0.89 5.03 0.99 94 1011.2
20210919081328 11 66 0.0 3.2 0.81 4.95 0.91 94 1011.1
20210919080846 11 66 0.0 3.2 0.66 4.75 0.71 93 1011.3
20210919080344 11 53 0.0 3.2 0.48 4.52 0.48 94 1011.3
20210919075841 11 91 0.0 4.8 0.51 4.60 0.48 94 1011.1
20210919075338 12 90 3.2 4.8 0.53 4.57 0.46 93 1010.9
20210919074838 12 275 0.0 0.0 0.53 4.52 0.41 93 1010.9
20210919074341 12 275 0.0 1.6 0.48 4.45 0.33 93 1010.8
20210919073841 12 276 0.0 1.6 0.51 4.42 0.30 92 1010.6
20210919073340 12 276 0.0 1.6 0.48 4.39 0.28 92 1010.4
20210919072838 13 180 0.0 1.6 0.41 4.32 0.20 91 1010.5
20210919072354 13 180 0.0 0.0 0.33 4.24 0.13 92 1010.4
20210919071859 13 180 0.0 1.6 0.30 4.22 0.10 94 1010.3
20210919071353 13 179 0.0 0.0 0.30 4.22 0.10 94 1010.3
20210919070841 13 175 0.0 0.0 0.25 4.17 0.05 94 1010.2
20210919070336 13 176 0.0 3.2 0.20 4.11 0.00 94 1010.1
20210919065834 13 175 0.0 6.4 0.18 4.32 4.09 94 1010.1
20210919065333 13 161 0.0 8.0 0.13 4.27 4.04 93 1010.1
20210919064831 13 170 3.2 11.3 0.10 4.22 3.99 93 1010.0
20210919064334 13 151 4.8 11.3 0.05 4.17 3.94 93 1010.0
20210919063835 13 165 1.6 6.4 0.03 4.14 3.91 93 1009.9
20210919063333 13 126 3.2 6.4 0.03 4.14 3.91 93 1010.0
20210919062831 13 153 0.0 6.4 0.03 4.14 3.91 93 1010.0
20210919062333 13 164 1.6 8.0 0.03 4.14 3.91 93 1009.9
20210919061830 13 157 1.6 8.0 0.03 4.14 3.91 93 1009.9
20210919061329 13 138 0.0 6.4 0.03 4.14 3.91 94 1009.9
20210919060830 13 114 0.0 8.0 0.03 4.14 3.91 93 1009.8
20210919060329 13 149 1.6 8.0 0.03 4.14 3.91 94 1009.8
20210919055847 13 159 1.6 8.0 0.05 4.14 3.91 94 1009.8
20210919055325 13 149 1.6 4.8 0.10 4.14 3.91 94 1009.8
20210919054830 13 182 0.0 6.4 0.15 4.11 3.89 94 1009.8
20210919054327 13 136 1.6 6.4 0.18 4.11 3.89 94 1009.7
20210919053829 13 143 1.6 4.8 0.20 4.11 3.89 94 1009.6
20210919053330 13 147 0.0 4.8 0.20 4.11 3.89 94 1009.7